Location: Chena
(64.8152°N, 147.9227°W)
Time: 08:16:33
(UTC+00:00)

N. Korean satellite - Pass Details

Date: 26 January 2021
Orbit: 451 x 502 km, 97.2° (Epoch: 08 March)

Event Time Altitude Azimuth Distance (km) Brightness Sun altitude
Rises 02:23:36 0° 176° (S) 2,578 10.6 -6.8°
Reaches altitude 10° 02:25:44 10° 181° (S) 1,692 9.8 -7.0°
Maximum altitude 02:29:17 51° 258° (WSW) 629 7.6 -7.3°
Drops below altitude 10° 02:32:49 10° 336° (NNW) 1,676 9.3 -7.7°
Sets 02:34:55 0° 342° (NNW) 2,551 10.1 -7.9°
